Regional Weather Roundup
Issued by NWS Albany, NY

Home | Current Version | Previous Version | Text Only | Print | Product List | Glossary On
Versions: 1 2 3 4 5 6 7 8 9 10 11 12 13 14 15 16 17 18 19 20 21 22 23 24 25 26 27 28 29 30 31 32 33 34 35 36 37 38 39 40 41 42 43 44 45 46 47 48 49 50
000
ASUS41 KALY 251510
RWRALY

NEW YORK STATE HOURLY WEATHER ROUNDUP
NATIONAL WEATHER SERVICE ALBANY NY
1100 AM EDT SAT APR 25 2015

NOTE: "FAIR" INDICATES FEW OR NO CLOUDS BELOW 12,000 FEET WITH NO
SIGNIFICANT WEATHER AND/OR NO OBSTRUCTIONS TO VISIBILITY.

NYZ032-033-038>043-046>054-057>066-NYZ062>081-251600-
EAST


CITY           SKY/WX    TMP DP  RH WIND       PRES   REMARKS
ALBANY         MOSUNNY   46  23  40 NW17      29.84F
GLENS FALLS    SUNNY     46  24  42 VRB3      29.80F
POUGHKEEPSIE   SUNNY     47  25  42 W10       29.85F
NEWBURGH       SUNNY     46  28  49 W12       29.86F
MONTGOMERY     SUNNY     48  26  42 W14G20    29.85F
WHITE PLAINS   SUNNY     45  24  43 NW13      29.84F
ISLIP          MOSUNNY   47  24  40 W14G22    29.83F
NEW YORK CITY  PTSUNNY   48  23  37 NW14      29.87S
CENTRAL PARK   SUNNY     49  22  34 MISG      29.89F
$$

NYZ005>009-017-018-044>046-055-056-251600-
CENTRAL


CITY           SKY/WX    TMP DP  RH WIND       PRES   REMARKS
FULTON         SUNNY     43  27  53 W12       29.92S
SYRACUSE       MOSUNNY   45  27  49 W9        29.91F
ROME           MOSUNNY   41  24  51 W14       29.91S
ELMIRA         SUNNY     45  24  43 NW9       29.91F
BINGHAMTON     SUNNY     38  25  59 VRB6      29.87S WCI  33
MONTICELLO     SUNNY     43  25  49 W13G18    29.86S
$$

NYZ026>034-041>043-251600-
NORTH


CITY           SKY/WX    TMP DP  RH WIND       PRES   REMARKS
WATERTOWN      SUNNY     41  26  55 SW8       29.91S
FORT DRUM      NOT AVBL
MASSENA        CLOUDY    38  25  59 W12G20    29.88F WCI  30
SARANAC LAKE   CLOUDY    35  24  64 VRB7      29.77F WCI  29
PLATTSBURGH    CLOUDY    42  25  50 VRB5      29.81S
$$

NYZ001>004-010>016-019>021-251600-
WEST


CITY           SKY/WX    TMP DP  RH WIND       PRES   REMARKS
NIAGARA FALLS  MOSUNNY   42  25  50 N8        29.96S
BUFFALO        MOSUNNY   43  23  45 N3        29.95F
DUNKIRK        PTSUNNY   38  28  67 N10       29.96F WCI  31
JAMESTOWN      PTSUNNY   37  19  48 N3        29.91F
WELLSVILLE     SUNNY     40  21  46 NW7       29.90S
ROCHESTER      MOSUNNY   43  23  45 VRB5      29.95F
PENN YAN       SUNNY     42  25  50 W9        29.93S
$$

             KEY
       WCI = WIND CHILL INDEX
       VSB = VISIBILITY
       HX  = HEAT INDEX
$$


USA.gov is the U.S. government's official web portal to all federal, state and local government web resources and services.